Menomonie, WI

1:15 PM CDT on July 20, 2017 (GMT -0500)
Menomonie

Weather History for KLUM - October, 2012

Change the Weather History Date:

Wednesday, October 24, 2012

  Actual Average (KEAU) Record (KEAU)
Temperature  
Mean Temperature 60 °F -  
Max Temperature 64 °F 56 °F 80 °F (1989)
Min Temperature 55 °F 35 °F 14 °F (1960)
Degree Days  
Heating Degree Days 6    
Growing Degree Days 10 (Base 50)    
Moisture  
Dew Point 58 °F    
Average Humidity 95    
Maximum Humidity 100    
Minimum Humidity 88    
Precipitation  
Precipitation 0.15 in - - ()
Sea Level Pressure  
Sea Level Pressure 29.77 in    
Wind  
Wind Speed 3 mph (NNW)    
Max Wind Speed 12 mph    
Max Gust Speed 20 mph    
Visibility 3 miles    
Events Fog , Rain , Thunderstorm    
Averages and records for this station are not official NWS values.
T = Trace of Precipitation, MM = Missing Value Source: NWS Daily Summary

Daily Weather History Graph

Daily Weather History Graph

Search for Another Location

Airport or City:

Trip Planner

Search our weather history database for the weather conditions in past years. The results will help you decide how hot, cold, wet, or windy it might be!

Date:

Astronomy

Oct. 24, 2012 Rise Set
Actual Time 7:35 AM CDT 6:06 PM CDT
Civil Twilight 7:05 AM CDT 6:36 PM CDT
Nautical Twilight 6:31 AM CDT 7:11 PM CDT
Astronomical Twilight 5:57 AM CDT 7:45 PM CDT
Moon 3:33 PM CDT (10/24) 2:18 AM CDT (10/24)
Length of Visible Light 11h 31m
Length of Day
10h 31m
Waxing Gibbous, 76% of the Moon is Illuminated
Oct 24
Waxing Gibbous
Oct 29
Full
Nov 6
Last Quarter
Nov 13
New
Nov 20
First Quarter

Hourly Weather History & Observations

Time (CDT) Temp. Dew Point Humidity Pressure Visibility Wind Dir Wind Speed Gust Speed Precip Events Conditions
12:15 AM 60.8 °F 59.0 °F 94% 29.79 in 3.0 mi East 3.5 mph - N/A   Overcast
12:35 AM 60.8 °F 59.0 °F 94% 29.79 in 3.0 mi East 4.6 mph - N/A Rain Light Rain
12:55 AM 60.8 °F 59.0 °F 94% 29.80 in 3.0 mi SW 4.6 mph - N/A   Light Drizzle
1:15 AM 60.8 °F 59.0 °F 94% 29.80 in 2.5 mi Calm Calm - 0.08 in Rain Light Rain
1:35 AM 60.8 °F 59.0 °F 94% 29.80 in 3.0 mi Calm Calm - 0.08 in   Overcast
1:55 AM 59.0 °F 59.0 °F 100% 29.80 in 2.5 mi Calm Calm - 0.08 in   Overcast
2:15 AM 60.8 °F 59.0 °F 94% 29.80 in 3.0 mi East 4.6 mph - N/A   Overcast
2:35 AM 59.0 °F 59.0 °F 100% 29.80 in 2.5 mi Calm Calm - N/A   Overcast
2:55 AM 59.0 °F 57.2 °F 94% 29.80 in 1.5 mi Calm Calm - N/A   Overcast
3:15 AM 59.0 °F 57.2 °F 94% 29.80 in 0.5 mi Calm Calm - N/A Fog Fog
3:35 AM 57.2 °F 55.4 °F 94% 29.80 in 0.2 mi Calm Calm - N/A Fog Fog
3:55 AM 57.2 °F 55.4 °F 94% 29.80 in 0.2 mi Calm Calm - N/A Fog Fog
4:15 AM 57.2 °F 57.2 °F 100% 29.80 in 0.2 mi Calm Calm - N/A Fog Fog
4:35 AM 59.0 °F 57.2 °F 94% 29.80 in 0.5 mi NW 3.5 mph - N/A Fog Fog
4:55 AM 59.0 °F 59.0 °F 100% 29.80 in 0.5 mi Calm Calm - N/A Fog Fog
5:15 AM 59.0 °F 57.2 °F 94% 29.80 in 0.8 mi Calm Calm - N/A   Overcast
5:35 AM 59.0 °F 57.2 °F 94% 29.82 in 0.8 mi West 6.9 mph - 0.02 in   Overcast
5:55 AM 59.0 °F 59.0 °F 100% 29.82 in 1.8 mi WNW 5.8 mph - 0.02 in   Overcast
6:15 AM 59.0 °F 59.0 °F 100% 29.83 in 1.8 mi WNW 4.6 mph - N/A   Overcast
6:35 AM 59.0 °F 57.2 °F 94% 29.83 in 2.0 mi WNW 3.5 mph - N/A   Overcast
6:55 AM 59.0 °F 57.2 °F 94% 29.83 in 1.8 mi Calm Calm - N/A   Overcast
7:15 AM 59.0 °F 57.2 °F 94% 29.83 in 1.8 mi Calm Calm - N/A   Overcast
7:35 AM 59.0 °F 57.2 °F 94% 29.83 in 1.5 mi NNW 3.5 mph - N/A   Overcast
7:55 AM 59.0 °F 57.2 °F 94% 29.83 in 1.8 mi Calm Calm - N/A   Overcast
8:15 AM 59.0 °F 57.2 °F 94% 29.84 in 2.5 mi NW 4.6 mph - N/A   Overcast
8:55 AM 59.0 °F 57.2 °F 94% 29.84 in 2.5 mi Calm Calm - N/A   Overcast
9:15 AM 59.0 °F 57.2 °F 94% 29.84 in 2.5 mi Calm Calm - N/A   Light Drizzle
9:35 AM 59.0 °F 57.2 °F 94% 29.83 in 1.8 mi NW 6.9 mph - N/A   Overcast
9:55 AM 59.0 °F 57.2 °F 94% 29.83 in 2.0 mi NNW 4.6 mph - N/A   Overcast
10:15 AM 59.0 °F 57.2 °F 94% 29.83 in 2.0 mi Calm Calm - N/A   Overcast
10:35 AM 59.0 °F 59.0 °F 100% 29.83 in 2.0 mi North 3.5 mph - N/A   Overcast
11:15 AM 59.0 °F 59.0 °F 100% 29.82 in 1.5 mi North 3.5 mph - N/A   Overcast
11:35 AM 60.8 °F 59.0 °F 94% 29.81 in 0.8 mi Calm Calm - N/A   Overcast
11:55 AM 60.8 °F 59.0 °F 94% 29.80 in 1.5 mi North 6.9 mph - N/A   Overcast
12:15 PM 60.8 °F 59.0 °F 94% 29.79 in 1.5 mi North 5.8 mph - N/A   Overcast
12:35 PM 60.8 °F 59.0 °F 94% 29.80 in 1.5 mi North 3.5 mph - N/A   Overcast
12:55 PM 60.8 °F 59.0 °F 94% 29.79 in 1.0 mi Calm Calm - N/A   Light Drizzle
1:35 PM 60.8 °F 60.8 °F 100% 29.77 in 1.0 mi Calm Calm - N/A   Overcast
1:55 PM 60.8 °F 60.8 °F 100% 29.76 in 1.0 mi Calm Calm - N/A   Overcast
2:15 PM 60.8 °F 60.8 °F 100% 29.76 in 0.8 mi Calm Calm - N/A Rain Rain
2:35 PM 62.6 °F 60.8 °F 94% 29.75 in 0.8 mi Calm Calm - N/A   Overcast
2:55 PM 60.8 °F 60.8 °F 100% 29.75 in 0.5 mi Calm Calm - N/A Fog Fog
3:15 PM 60.8 °F 60.8 °F 100% 29.73 in 0.5 mi Calm Calm - N/A Fog Fog
3:35 PM 62.6 °F 60.8 °F 94% 29.72 in 0.5 mi Calm Calm - N/A Fog Fog
3:55 PM 62.6 °F 62.6 °F 100% 29.71 in 0.5 mi East 3.5 mph - N/A Fog Fog
4:15 PM 62.6 °F 62.6 °F 100% 29.71 in 0.5 mi Calm Calm - N/A Fog Fog
4:55 PM 64.4 °F 62.6 °F 94% 29.68 in 1.0 mi East 4.6 mph - N/A   Overcast
5:35 PM 64.4 °F 64.4 °F 100% 29.67 in 2.0 mi ESE 8.1 mph - N/A   Overcast
5:55 PM 64.4 °F 64.4 °F 100% 29.67 in 4.0 mi SE 11.5 mph - N/A Thunderstorm Overcast
6:15 PM 64.4 °F 64.4 °F 100% 29.68 in 5.0 mi SW 8.1 mph - 0.01 in   Overcast
6:35 PM 64.4 °F 62.6 °F 94% 29.69 in 4.0 mi West 9.2 mph 19.6 mph 0.04 in Rain , Thunderstorm Heavy Thunderstorms and Rain
6:55 PM 60.8 °F 59.0 °F 94% 29.70 in 10.0 mi West 10.4 mph - 0.05 in   Overcast
7:35 PM 59.0 °F 55.4 °F 88% 29.72 in 10.0 mi WNW 8.1 mph - N/A   Overcast
8:15 PM 55.4 °F 53.6 °F 94% 29.72 in 10.0 mi NW 10.4 mph - N/A   Overcast
8:35 PM 55.4 °F 53.6 °F 94% 29.73 in 10.0 mi NNW 11.5 mph - N/A   Overcast
8:55 PM 55.4 °F 53.6 °F 94% 29.73 in 10.0 mi NNW 9.2 mph - N/A   Overcast
9:15 PM 55.4 °F 53.6 °F 94% 29.73 in 10.0 mi NW 9.2 mph - N/A   Overcast
9:55 PM 55.4 °F 53.6 °F 94% 29.73 in 10.0 mi NW 6.9 mph - N/A   Overcast
10:15 PM 55.4 °F 53.6 °F 94% 29.72 in 10.0 mi NNW 4.6 mph - N/A   Overcast
10:35 PM 55.4 °F 53.6 °F 94% 29.72 in 10.0 mi NW 6.9 mph - N/A   Overcast
10:55 PM 55.4 °F 53.6 °F 94% 29.71 in 10.0 mi NNW 8.1 mph - N/A   Overcast
11:15 PM 55.4 °F 51.8 °F 88% 29.70 in 10.0 mi NNW 8.1 mph - N/A   Overcast
11:35 PM 55.4 °F 51.8 °F 88% 29.70 in 10.0 mi North 5.8 mph - N/A   Overcast
11:55 PM 55.4 °F 51.8 °F 88% 29.71 in 10.0 mi NNW 5.8 mph - N/A   Overcast